10:47
Airports
History
Links
Donate
Help keep this website running!
PayPal
Bitcoin
This page is community maintained. The information is intended for PC simulator navigation or reference.
Always use approved charts for navigation.
XHAN
Hanley WilliamEdited 07-Mar-2012
Hanley William (XHAN)
England, United Kingdom
4
Lat/Lng:52° 17' 58.46" N / 2° 28' 13.08" W
52.299572 / -2.470299
Elevation:645'ft / 197mMSL
ID / ICAO:XHAN
Runways:1
Longest:05-23
Asphalt 596m / 1,954ft
(Edited 2012-03-07) [ Sign in to Edit ]
Nearby Weather09:50 GMT 2017-12-18
Nearby weather at EGWC, RAF Cosford located 24.6 nautical miles from XHAN
Altimeter: 30.42
Visibility: 6.2 statute miles
Wind: 2 knots (from 110°)
Temp: 1°c / 34°f
Humidity: 100.0%

METAR: EGWC 180950Z 11002KT 9999 SCT010 01/01 Q1030 GRN

(Powered by phpweather)
Nearby VORs <50NM
Nearby NDBs
Runway 05 / 23
Dimensions:595.5 x 29.9m 1954' x 98'ft
Surface:Asphalt
Runway 05 [A]Runway 23 [B]
Heading:050°TH 230°TH
Lat:
Lng:
52° 17' 52.21"N
2° 28' 25.25"W
52° 18' 4.7"N
2° 28' 0.9"W
User Notes and Comments
52° 17' 58.46" N / 2° 28' 13.08" W
Distance To
Airport ID:
Nearby Airports
4 Milson 5.3 NM
EG70 NW 323°
(C) Wolverhampton 17.4 NM
EGBO NNE 30°
(U) Shobdon Aerodrome 17.9 NM
EGBS WSW 257°
4 Croft Farm 20.5 NM
EG24 SE 136°
4 Ledbury 20.5 NM
XLED S 180°
(C) RAF Cosford 24.6 NM
EGWC ( WX ) NNE 16°
4 Bidford 28.6 NM
XBID ESE 113°
VFR Chart
Flight Planning at SkyVector.com